This is the latest recevied weather packets stored in our database for station/object K5KVN. If no packets are shown the sender has not sent any weather packets the latest 10 day(s).
| Time | Temp. | Humidity | Pressure | Rain* | Wind** | Luminosity | Snow |
|---|---|---|---|---|---|---|---|
| 1777763241 | 17.78° C | 45% | 1020 hPa | 0 mm | - | - | - |
| 1777762641 | 17.78° C | 46% | 1019.9 hPa | 0 mm | - | - | - |
| 1777762042 | 18.33° C | 40% | 1019.9 hPa | 0 mm | - | - | - |
| 1777761442 | 18.33° C | 44% | 1020 hPa | 0 mm | - | - | - |
| 1777760840 | 18.33° C | 39% | 1020 hPa | 0 mm | - | - | - |
| 1777760300 | 18.33° C | 43% | 1019.9 hPa | 0 mm | - | - | - |
| 1777759641 | 18.89° C | 38% | 1020 hPa | 0 mm | - | - | - |
| 1777759103 | 18.89° C | 39% | 1020.1 hPa | 0 mm | - | - | - |
| 1777758498 | 19.44° C | 38% | 1020.2 hPa | 0 mm | - | - | - |
| 1777757836 | 19.44° C | 39% | 1020.2 hPa | 0 mm | - | - | - |
| 1777757236 | 19.44° C | 39% | 1020.2 hPa | 0 mm | - | - | - |
| 1777756635 | 19.44° C | 40% | 1020.3 hPa | 0 mm | - | - | - |
| 1777756034 | 19.44° C | 40% | 1020.3 hPa | 0 mm | - | - | - |
| 1777755434 | 19.44° C | 43% | 1020.5 hPa | 0 mm | - | - | - |
| 1777754834 | 19.44° C | 38% | 1020.6 hPa | 0 mm | - | - | - |
| 1777754233 | 19.44° C | 47% | 1020.7 hPa | 0 mm | - | - | - |
| 1777753633 | 19.44° C | 45% | 1020.8 hPa | 0 mm | - | - | - |
| 1777753032 | 19.44° C | 43% | 1020.8 hPa | 0 mm | - | - | - |
| 1777752430 | 19.44° C | 45% | 1020.8 hPa | 0 mm | - | - | - |
| 1777751830 | 18.89° C | 42% | 1020.7 hPa | 0 mm | - | - | - |
| 1777751232 | 19.44° C | 42% | 1020.8 hPa | 0 mm | - | - | - |
| 1777750632 | 19.44° C | 41% | 1020.9 hPa | 0 mm | - | - | - |
| 1777750031 | 18.89° C | 44% | 1020.9 hPa | 0 mm | - | - | - |
| 1777749430 | 18.33° C | 44% | 1021 hPa | 0 mm | - | - | - |
| 1777748829 | 18.33° C | 43% | 1020.9 hPa | 0 mm | - | - | - |
* Rain latest hour (hover to see other rain measurements)
** Current wind speed in m/s (hover to see current wind gust speed)